TIANWANG 1A (TW-1A)
1 40928U 15051D   19302.86390969  .00004213  00000-0  10258-3 0  9999
2 40928  97.1349 331.1901 0009664 317.8684 127.9213 15.41432230229685
LAPAN A2
1 40931U 15052B   19302.40879780  .00000597  00000-0 -58682-5 0  9994
2 40931   5.9847 190.0824 0011407 235.6408 124.5275 14.76615343220917
LQSAT
1 40958U 15057A   19302.76628402 +.00000037 +00000-0 +13357-4 0  9997
2 40958 097.8853 008.2733 0018460 170.0162 190.1417 14.73093851218406
CHUBUSAT 2
1 41338U 16012B   19302.63254074 +.00000396 +00000-0 +24134-4 0  9991
2 41338 031.0043 019.8874 0013906 339.8545 020.1541 15.00200431202895
CHUBUSAT 3
1 41339U 16012C   19302.58661751  .00000402  00000-0  24481-4 0  9993
2 41339  31.0113  18.1005 0013585 346.1705  13.8556 15.00372204202886
OUFTI-1
1 41458U 16025C   19302.80985700 +.00002358 +00000-0 +12324-3 0  9991
2 41458 098.1012 036.4268 0164354 269.4025 088.8367 15.06122600192606
E-STAR-2
1 41459U 16025D   19302.79230986  .00002294  00000-0  12087-3 0  9994
2 41459  98.1007  35.9925 0165542 270.8420  87.3819 15.05746218192578
AAUSAT 4
1 41460U 16025E   19302.79676512 +.00003475 +00000-0 +17622-3 0  9997
2 41460 098.0965 037.5856 0155685 262.3718 095.9796 15.07748327192727
NUSAT 1
1 41557U 16033B   19302.91057659 +.00001625 +00000-0 +63087-4 0  9994
2 41557 097.4143 029.6274 0013706 180.3992 179.7239 15.27483151190422
BEESAT 4
1 41619U 16040W   19302.86841497 +.00001636 +00000-0 +71635-4 0  9996
2 41619 097.3528 002.5218 0009542 275.7012 084.3137 15.23412375174134
PRATHAM
1 41783U 16059A   19302.76109319  .00000082  00000-0  25197-4 0  9993
2 41783  98.0520 359.2961 0032748 327.4300  32.4882 14.63016916165003
ALSAT 1N
1 41789U 16059G   19302.90942745 +.00000059 +00000-0 +20291-4 0  9997
2 41789 098.0555 001.7296 0027366 315.9051 043.9953 14.64270927165148
NAYIF 1
1 42017U 17008BX  19302.77459458 +.00001857 +00000-0 +75370-4 0  9991
2 42017 097.3897 008.4198 0007746 067.5833 292.6225 15.25840367150213
MAX VALIER SAT
1 42778U 17036P   19302.85114422 +.00001231 +00000-0 +56445-4 0  9992
2 42778 097.3391 357.4837 0013934 114.3115 245.9579 15.22213675130497
